Погода в Яренске

Поиск расширенной информации на нашем сайте:

Полезная информация:

Новости сайта



02.01.2020
Опубликован Долгосрочный прогноз погоды по городам России и ближнего зарубежья на январь 2020 года.
Карты: Прогноз на январь и февраль 2020 года, Сравнение прогнозируемой аномалии приземной температуры воздуха на январь 2020 года по разным моделям.




Погода в Яренске - сегодня

Время (UTC), дата Ветер
(°,м/с) 
Видим.   Явления Облачность Т
(°С)
Тd
(°С)
f(%) Тe
(°С)
Pmin
(гПа)
dP
(гПа)
Po
(мм)
O2
(г/м3)
Тmin Tmax R s Состояние
почвы
06 29.11.20 080 (В) 10 км  {снег}  10/0 средняя 
[As op]
-16.4 -17.6 90 -17  1046.6  0.2  776  334           
09 29.11.20 070 (В) 10 км  {снег}  9/0 средняя 
[Ac As]
-14 -15.3 90 -14  1046.5  0.1  776  331           
12 29.11.20 070 (В) 10 км  {снег}  8/0 средняя 
[Ac As]
-14.7 -15.7 92 -15  1046.1  -0.5  775  332           
15 29.11.20 070 (В) 10 км    3/0 средняя 
[Ac trans]
-15.4 -16.4 92 -15  1045.8  -0.3  775  332    -13.8  0.0     
18 29.11.20 080 (В) 10 км  слаб. снег  10/10 800 м 
[Sc]
-13.6 -14.5 93 -14  1045.8  775  330           
21 29.11.20 120 (ЮВ) 10 км  {снег}  10/10 630 м 
[Sc]
-11.1 -11.8 95 -13  1045  -0.7  775  327           
00 30.11.20 100 (В) 10 км  {снег}  10/10 600 м 
[Sc]
-9.5 -10.1 95 -9  1044.3  -0.6  774  324           
03 30.11.20 120 (ЮВ) 10 км    10/10 400 м 
[Sc]
-7.8 -8.2 97 -8  1043.3  -0.9  773  322  -15.3    0.0  равномерный
сухой снег
100% 
06 30.11.20 110 (В) 4000 м  дымка  10/10 330 м 
[Sc]
-6.4 -6.6 98 -6  1042.9  -0.2  773  320           
09 30.11.20 110 (В) 4000 м  дымка  10/10 450 м 
[Sc]
-4.9 -5.1 98 -6  1041.9  -0.9  773  318           
12 30.11.20 140 (ЮВ) 4000 м  дымка  10/10 330 м 
[St]
-3.7 -3.8 99 -5  1041.1  -0.7  772  316           
15 30.11.20 130 (ЮВ) 4000 м  дымка  10/10 330 м 
[St]
-2.9 -3.2 98 -4  1040  -0.7  771  314    -2.9       
18 30.11.20 140 (ЮВ) 4000 м  дымка  8/8 600 м 
[Sc]
-2.8 -3.5 95 -4  1038.3  -1.6  770  314           
21 30.11.20 160 (Ю) 10 км    10/10 540 м 
[Sc]
-3.9 -4.6 95 -7  1037.2  -1.2  769  315           
00 01.12.20 170 (Ю) 10 км    10/10 420 м 
[Sc]
-3.7 -4.9 91 -6  1036  -1.1  768  314           
03 01.12.20 170 (Ю) 10 км    10/10 400 м 
[Sc]
-4.2 -6 87 -6  1035.4  -0.7  768  315  -4.2      равномерный
сухой снег
100% 
06 01.12.20 170 (Ю) 20000 м    10/3 300 м средняя, верхняя 
[Sc|Ac trans|Ci fib]
-6.4 -8.1 88 -8  1035.3  -0.2  768  318  -6.4         
09 01.12.20 170 (Ю) 20000 м    10/0 средняя, верхняя 
[Ac trans|Ci fib]
-5.8 -8.5 81 -7  1034.9  -0.3  767  317           
12 01.12.20 160 (Ю) 20000 м    4/0 средняя, верхняя 
[Ac trans|Ci fib]
-6.1 -9.1 79 -8  1034  -0.9  767  317           
15 01.12.20 180 (Ю) 20000 м    10/0 средняя, верхняя 
[Ac trans|Ci fib]
-5.4 -8.3 80 -8  1033.5  -0.5  766  316    -4.2       
18 01.12.20 200 (Ю) 20000 м    10/10 600 м 
[Sc]
-4.7 -7.9 78 -7  1033.4  766  315           
21 01.12.20 200 (Ю) 10 км  слаб. снег  10/8 500 м средняя 
[Sc|Ac trans]
-5 -7.1 85 -7  1033.8  0.3  767  315           
00 02.12.20 190 (Ю) 10 км  в посл. час снег  10/8 540 м средняя 
[Sc|Ac trans]
-5.5 -7.5 86 -7  1033.9  0.1  767  316           
03 02.12.20 190 (Ю) 10 км    10/8 500 м средняя 
[Sc|Ac trans]
-5.5 -7.5 86 -7  1033.6  -0.2  766  316  -5.7         
06 02.12.20 190 (Ю) 10 км    10/10 540 м 
[Sc]
-5.7 -7.6 86 -8  1033.5  -0.1  766  316           
Время (UTC), дата Ветер
(°,м/с) 
Видим.   Явления Облачность Т
(°С)
Тd
(°С)
f(%) Тe
(°С)
Pmin
(гПа)
dP
(гПа)
Po
(мм)
O2
(г/м3)
Тmin Tmax R s Состояние
почвы

Для получения пояснительной информации подведите курсор к названию столбца.

ПОГОДА в Яренске - архив

Всё, что Вы хотите узнать о погоде в Яренске - удобно и подробно!

Выберите нужную дату (начиная с 1 января 2019* года) и нажмите кнопку "Найти".
Будут отображены архивные сводки погоды по пункту Яренск, начиная с указанной даты.


Отображать данные в формате CSV (для использования в таблицах Excel)


Внимание! Наш архив погоды предназначен исключительно для личного некоммерческого использования в познавательных целях. Если Вам необходимы официальные справки о состоянии погоды (для производственных, юридических, коммерческих и т.п. целей), обращайтесь в органы Росгидромета.

*Примечание: данная дата относится к архиву по метеостанциям СССР (Россия, СНГ, Балтия).
Архив по метеостанциям Зарубежной Европы и Азии (кроме Китая) хранится 10 дней, по другим регионам земного шара (Китай, Африка, Америка, Австралия, Океания) - 1 день.

Яренск - район местоположения метеостанции


Название, широта, долгота, высота метеостанции:
Яренск 62.2°ш. 49.1°д. 92 м над ур. моря [Российская Федерация]

Дополнительная информация

В oтличие oт бoльшинства пoгoдных сайтoв мы публикуем пoдрoбную метеoинфoрмацию в детальнoм прoфессиoнальнoм фoрмате.

Характеристики температуры и влажнoсти вoздуха измеряются на высoте 2 м в тени вдали oт зданий и деревьев.
Скoрoсть ветра измеряется на высoте 10 м (на урoвне рoста челoвека скoрoсть ветра ниже в 1.5-2 раза). Если метеoстанция нахoдится в гoрoде или в лесу, тo скoрoсть ветра занижена на 2-4 м/с пo сравнению с oткрытым местoм. Скoрoсть ветра над акватoриями крупных рек и oзёр, а также на вершинах хoлмoв на 2-5 м/с выше, чем в oбычных услoвиях.
Атмoсфернoе давление в разных тoчках местнoсти мoжет значительнo oтличаться oт давления на метеoстанции, в зависимoсти oт услoвий рельефа (при пoдъёме на 10 м давление пoнижается примернo на 1 мм рт.ст.).